Weather History for KBBB - May, 2014

Change the Weather History Date:

Saturday, May 17, 2014

  Actual Average Record
Temperature  
Mean Temperature 51 °F -  
Max Temperature 69 °F 73 °F 93 °F (2012)
Min Temperature 33 °F 48 °F 30 °F (2002)
Degree Days  
Heating Degree Days 14    
Growing Degree Days 1 (Base 50)    
Moisture  
Dew Point 29 °F    
Average Humidity 45    
Maximum Humidity 75    
Minimum Humidity 18    
Precipitation  
Precipitation 0.00 in - - ()
Sea Level Pressure  
Sea Level Pressure 30.02 in    
Wind  
Wind Speed 6 mph (West)    
Max Wind Speed 14 mph    
Max Gust Speed 23 mph    
Visibility 10 miles    
Events      
Averages and records for this station are not official NWS values.
T = Trace of Precipitation, MM = Missing Value Source: NWS Daily Summary

Daily Weather History Graph

Daily Weather History Graph

Search for Another Location

Airport or City:

Trip Planner

Search our weather history database for the weather conditions in past years. The results will help you decide how hot, cold, wet, or windy it might be!

Date:

Astronomy

May. 17, 2014 Rise Set
Actual Time 5:50 AM CDT 8:48 PM CDT
Civil Twilight 5:15 AM CDT 9:23 PM CDT
Nautical Twilight 4:31 AM CDT 10:07 PM CDT
Astronomical Twilight 3:38 AM CDT 11:01 PM CDT
Moon 11:48 PM CDT (5/17) 8:34 AM CDT (5/17)
Length of Visible Light 16h 07m
Length of Day
14h 58m
Waning Gibbous, 89% of the Moon is Illuminated
May 17
Waning Gibbous
May 21
Last Quarter
May 28
New
Jun 5
First Quarter
Jun 12
Full

Hourly Weather History & Observations

Time (CDT) Temp. Windchill Dew Point Humidity Pressure Visibility Wind Dir Wind Speed Gust Speed Precip Events Conditions
12:12 AM 41.0 °F 38.0 °F 30.2 °F 65% 30.07 in 10.0 mi WSW 4.6 mph - N/A   Scattered Clouds
12:33 AM 37.4 °F 33.8 °F 28.4 °F 70% 30.06 in 10.0 mi WSW 4.6 mph - N/A   Scattered Clouds
12:52 AM 37.4 °F 32.8 °F 28.4 °F 70% 30.06 in 10.0 mi West 5.8 mph - N/A   Scattered Clouds
1:13 AM 37.4 °F 32.1 °F 28.4 °F 70% 30.06 in 10.0 mi West 6.9 mph - N/A   Clear
1:33 AM 37.4 °F 32.1 °F 28.4 °F 70% 30.06 in 10.0 mi West 6.9 mph - N/A   Clear
1:52 AM 35.6 °F 30.7 °F 28.4 °F 75% 30.06 in 10.0 mi West 5.8 mph - N/A   Clear
2:13 AM 35.6 °F 30.7 °F 26.6 °F 70% 30.06 in 10.0 mi West 5.8 mph - N/A   Clear
2:33 AM 35.6 °F 31.7 °F 26.6 °F 70% 30.06 in 10.0 mi West 4.6 mph - N/A   Scattered Clouds
2:52 AM 35.6 °F 29.9 °F 26.6 °F 70% 30.06 in 10.0 mi West 6.9 mph - N/A   Scattered Clouds
3:13 AM 37.4 °F 31.4 °F 28.4 °F 70% 30.06 in 10.0 mi West 8.1 mph - N/A   Clear
3:32 AM 37.4 °F 31.4 °F 28.4 °F 70% 30.05 in 10.0 mi West 8.1 mph - N/A   Clear
3:53 AM 37.4 °F 32.1 °F 28.4 °F 70% 30.05 in 10.0 mi WSW 6.9 mph - N/A   Clear
4:12 AM 35.6 °F 31.7 °F 26.6 °F 70% 30.05 in 10.0 mi WSW 4.6 mph - N/A   Clear
4:32 AM 35.6 °F 31.7 °F 26.6 °F 70% 30.04 in 10.0 mi WSW 4.6 mph - N/A   Clear
4:53 AM 35.6 °F 32.8 °F 26.6 °F 70% 30.04 in 10.0 mi SW 3.5 mph - N/A   Clear
5:12 AM 33.8 °F - 26.6 °F 75% 30.04 in 10.0 mi Calm Calm - N/A   Clear
5:32 AM 33.8 °F 28.6 °F 26.6 °F 75% 30.03 in 10.0 mi SW 5.8 mph - N/A   Clear
5:53 AM 33.8 °F 28.6 °F 26.6 °F 75% 30.03 in 10.0 mi SSW 5.8 mph - N/A   Clear
6:12 AM 37.4 °F 34.9 °F 26.6 °F 65% 30.03 in 10.0 mi South 3.5 mph - N/A   Clear
6:33 AM 37.4 °F 34.9 °F 28.4 °F 70% 30.03 in 10.0 mi South 3.5 mph - N/A   Clear
6:53 AM 37.4 °F 33.8 °F 28.4 °F 70% 30.03 in 10.0 mi South 4.6 mph - N/A   Clear
7:12 AM 39.2 °F - 30.2 °F 70% 30.03 in 10.0 mi Calm Calm - N/A   Clear
7:33 AM 41.0 °F 39.0 °F 30.2 °F 65% 30.03 in 10.0 mi SSW 3.5 mph - N/A   Clear
7:53 AM 44.6 °F 42.2 °F 32.0 °F 61% 30.03 in 10.0 mi WSW 4.6 mph - N/A   Clear
8:12 AM 46.4 °F 44.3 °F 32.0 °F 57% 30.03 in 10.0 mi West 4.6 mph - N/A   Clear
8:33 AM 48.2 °F - 32.0 °F 54% 30.03 in 10.0 mi West 6.9 mph - N/A   Clear
8:52 AM 51.8 °F - 33.8 °F 50% 30.03 in 10.0 mi NW 5.8 mph - N/A   Clear
9:12 AM 51.8 °F - 35.6 °F 54% 30.03 in 10.0 mi WNW 5.8 mph - N/A   Clear
9:33 AM 53.6 °F - 35.6 °F 51% 30.04 in 10.0 mi NNW 8.1 mph - N/A   Clear
9:52 AM 55.4 °F - 35.6 °F 47% 30.04 in 10.0 mi North 6.9 mph - N/A   Clear
10:12 AM 57.2 °F - 35.6 °F 44% 30.03 in 10.0 mi WNW 4.6 mph - N/A   Clear
10:33 AM 59.0 °F - 35.6 °F 42% 30.03 in 10.0 mi NW 5.8 mph - N/A   Clear
10:52 AM 60.8 °F - 35.6 °F 39% 30.03 in 10.0 mi Calm Calm - N/A   Clear
11:13 AM 60.8 °F - 32.0 °F 34% 30.03 in 10.0 mi NNE 5.8 mph - N/A   Clear
11:33 AM 62.6 °F - 30.2 °F 30% 30.03 in 10.0 mi North 3.5 mph - N/A   Clear
11:52 AM 62.6 °F - 28.4 °F 27% 30.03 in 10.0 mi NNE 4.6 mph - N/A   Clear
12:13 PM 64.4 °F - 24.8 °F 22% 30.03 in 10.0 mi East 3.5 mph - N/A   Clear
12:33 PM 64.4 °F - 26.6 °F 24% 30.02 in 10.0 mi NW 9.2 mph - N/A   Clear
12:52 PM 66.2 °F - 26.6 °F 23% 30.02 in 10.0 mi NNE 5.8 mph 16.1 mph N/A   Clear
1:13 PM 66.2 °F - 26.6 °F 23% 30.01 in 10.0 mi NW 10.4 mph - N/A   Clear
1:32 PM 66.2 °F - 26.6 °F 23% 30.01 in 10.0 mi NNE 10.4 mph - N/A   Clear
1:53 PM 66.2 °F - 26.6 °F 23% 30.00 in 10.0 mi NNE 10.4 mph 16.1 mph N/A   Scattered Clouds
2:13 PM 68.0 °F - 26.6 °F 21% 30.00 in 10.0 mi North 5.8 mph 10.4 mph N/A   Clear
2:32 PM 68.0 °F - 26.6 °F 21% 30.00 in 10.0 mi NW 4.6 mph 23.0 mph N/A   Clear
2:53 PM 69.8 °F - 26.6 °F 20% 29.99 in 10.0 mi North 6.9 mph - N/A   Clear
3:12 PM 69.8 °F - 26.6 °F 20% 29.99 in 10.0 mi WNW 8.1 mph - N/A   Scattered Clouds
3:32 PM 68.0 °F - 24.8 °F 20% 29.99 in 10.0 mi NW 8.1 mph 18.4 mph N/A   Scattered Clouds
3:53 PM 68.0 °F - 26.6 °F 21% 29.98 in 10.0 mi NW 11.5 mph - N/A   Scattered Clouds
4:12 PM 69.8 °F - 26.6 °F 20% 29.98 in 10.0 mi NW 8.1 mph - N/A   Scattered Clouds
4:32 PM 68.0 °F - 24.8 °F 20% 29.98 in 10.0 mi North 8.1 mph - N/A   Scattered Clouds
4:53 PM 69.8 °F - 24.8 °F 18% 29.98 in 10.0 mi NNW 8.1 mph 17.3 mph N/A   Scattered Clouds
5:12 PM 68.0 °F - 26.6 °F 21% 29.98 in 10.0 mi WNW 9.2 mph - N/A   Clear
5:32 PM 69.8 °F - 26.6 °F 20% 29.98 in 10.0 mi NW 13.8 mph 17.3 mph N/A   Scattered Clouds
5:53 PM 69.8 °F - 26.6 °F 20% 29.98 in 10.0 mi WNW 10.4 mph - N/A   Scattered Clouds
6:12 PM 69.8 °F - 26.6 °F 20% 29.97 in 10.0 mi NW 10.4 mph - N/A   Scattered Clouds
6:32 PM 69.8 °F - 26.6 °F 20% 29.97 in 10.0 mi NW 11.5 mph - N/A   Scattered Clouds
6:53 PM 68.0 °F - 26.6 °F 21% 29.98 in 10.0 mi WNW 6.9 mph - N/A   Clear
7:12 PM 66.2 °F - 26.6 °F 23% 29.98 in 10.0 mi West 9.2 mph - N/A   Clear
7:32 PM 66.2 °F - 26.6 °F 23% 29.98 in 10.0 mi WNW 8.1 mph - N/A   Clear
7:53 PM 64.4 °F - 28.4 °F 26% 29.98 in 10.0 mi West 8.1 mph - N/A   Clear
8:12 PM 62.6 °F - 28.4 °F 27% 29.98 in 10.0 mi WNW 5.8 mph - N/A   Clear
8:33 PM 59.0 °F - 26.6 °F 29% 29.98 in 10.0 mi West 4.6 mph - N/A   Clear
8:53 PM 55.4 °F - 30.2 °F 38% 29.98 in 10.0 mi West 3.5 mph - N/A   Clear
9:12 PM 55.4 °F - 28.4 °F 36% 29.99 in 10.0 mi West 3.5 mph - N/A   Clear
9:33 PM 53.6 °F - 30.2 °F 41% 29.99 in 10.0 mi WSW 4.6 mph - N/A   Clear
9:53 PM 51.8 °F - 30.2 °F 44% 29.99 in 10.0 mi WSW 4.6 mph - N/A   Clear
10:12 PM 51.8 °F - 32.0 °F 47% 29.99 in 10.0 mi WSW 3.5 mph - N/A   Clear
10:33 PM 48.2 °F - 32.0 °F 54% 30.00 in 10.0 mi SW 6.9 mph - N/A   Clear
10:52 PM 48.2 °F - 32.0 °F 54% 30.00 in 10.0 mi SW 3.5 mph - N/A   Clear
11:12 PM 51.8 °F - 30.2 °F 44% 30.00 in 10.0 mi WSW 6.9 mph - N/A   Clear
11:33 PM 51.8 °F - 33.8 °F 50% 30.01 in 10.0 mi WSW 8.1 mph - N/A   Clear
11:52 PM 51.8 °F - 33.8 °F 50% 30.01 in 10.0 mi West 6.9 mph - N/A   Clear